Flag for Germany Weather past 2 weeks in Freising, Bavaria, Germany

Now
32 °F

Light snow. Overcast.


Feels Like: 32 °F
Forecast: 8 / 25 °F
Wind: 2 mph from East

Location: Muenchen Flughafen

Current Time: Dec 28, 2014 at 4:57:48 AM

Latest Report: Dec 28, 2014 at 4:00 AM


Visibility: 2 mi

Pressure: 29.61 "Hg

Humidity: 96%

Dew point: 31 °F

Location of FreisingLocation

Historic Weather in Freising — Graph

°F

Freising temperature yesterday

Maximum temperature yesterday: 34 °F (at 9:00 PM)
Minimum temperature yesterday: 26 °F (at 12:00 AM)
Average temperature yesterday: 29 °F

Past Weeks' High & Low Weather Summary

 TemperatureHumidityPressure
High56 °F (Dec 19, 2:00 PM)100% (Dec 27, 1:00 AM)30.54 "Hg (Dec 27, 1:00 AM)
Low25 °F (Dec 24, 3:00 AM)35% (Dec 23, 1:00 PM)29.55 "Hg (Dec 27, 6:00 PM)
Average41 °F79%30.14 "Hg
* Reported Dec 13 3:00 AM — Dec 28 3:00 AM, Freising, Weather by CustomWeather, © 2014

Note: Actual official high and low records may vary slightly from our data, if they occured in-between our weather recording intervals... More about our weather records

Advertising

Freising weather history for previous 24 hours

 ConditionsComfort  
Time TempWeatherWind HumidityBarometerVisibility
3:00 AM
Dec 28
31 °FLight snow. Overcast.1 mph96%29.60 "Hg6 mi
2:00 AM30 °FLight snow. Overcast.2 mph96%29.59 "Hg6 mi
1:00 AM33 °FLight snow. Overcast.2 mph91%29.57 "Hg9 mi
12:00 AM34 °FLight snow. Overcast.2 mph91%29.57 "Hg4 mi
11:00 PM
Dec 27
33 °FLight snow. Overcast.3 mph92%29.57 "Hg5 mi
10:00 PM34 °FLight snow. Overcast.5 mph90%29.57 "Hg4 mi
9:00 PM34 °FLight snow. Overcast.3 mph84%29.55 "Hg9 mi
8:00 PM32 °FLight snow. Overcast.2 mph91%29.55 "Hg2 mi
7:00 PM28 °FOvercast.3 mph94%29.57 "Hg10 mi
6:00 PM31 °FLight snow. Low clouds.3 mph93%29.55 "Hg5 mi
5:00 PM31 °FLight snow. Low clouds.2 mph96%29.56 "Hg3 mi
4:00 PM30 °FSnow. Low clouds.5 mph94%29.57 "Hg1 mi
3:00 PM28 °FSnow. Low clouds.5 mph94%29.58 "Hg1 mi
2:00 PM28 °FLight snow. Low clouds.7 mph94%29.60 "Hg1 mi
1:00 PM28 °FSnow. Low clouds.8 mph91%29.64 "Hg1 mi
12:00 PM29 °FOvercast.8 mph85%29.70 "Hg7 mi
11:00 AM28 °FOvercast.9 mph87%29.75 "Hg16 mi
10:00 AM28 °FOvercast.8 mph88%29.79 "Hg16 mi
9:00 AM28 °FOvercast.8 mph90%29.84 "Hg9 mi
8:00 AM28 °FOvercast.7 mph93%29.89 "Hg7 mi
7:00 AM27 °FPassing clouds.5 mph94%29.96 "Hg7 mi
6:00 AM27 °FFog.3 mph95%30.02 "Hg4 mi
5:00 AM26 °FFog.2 mph96%30.10 "Hg3 mi
4:00 AM27 °FFog.2 mph97%30.16 "Hg2 mi
Weather by CustomWeather, © 2014

See weather overviewHow to use our weather pages